Weather History for Tacoma, WA

Change the Weather History Date:

Saturday, January 15, 2011

  Actual Average Record
Temperature  
Mean Temperature 50 °F -  
Max Temperature 53 °F 44 °F 59 °F (1973)
Min Temperature 47 °F 33 °F 14 °F (2007)
Degree Days  
Heating Degree Days 15    
Moisture  
Dew Point 49 °F    
Average Humidity 95    
Maximum Humidity 100    
Minimum Humidity 93    
Precipitation  
Precipitation 0.61 in - - ()
Sea Level Pressure  
Sea Level Pressure 30.13 in    
Wind  
Wind Speed 6 mph (SSW)    
Max Wind Speed 17 mph    
Max Gust Speed 23 mph    
Visibility 9 miles    
Events Rain    
Averages and records for this station are not official NWS values.
T = Trace of Precipitation, MM = Missing Value Source: NWS Daily Summary

Daily Weather History Graph

Daily Weather History Graph

Search for Another Location

Airport:

Trip Planner

Search our weather history database for the weather conditions in past years. The results will help you decide how hot, cold, wet, or windy it might be!

Date:

Astronomy

Jan. 15, 2011 Rise Set
Actual Time 7:51 AM PST 4:47 PM PST
Civil Twilight 7:17 AM PST 5:21 PM PST
Nautical Twilight 6:39 AM PST 5:59 PM PST
Astronomical Twilight 6:03 AM PST 6:36 PM PST
Moon 12:45 PM PST (1/15) 4:04 AM PST (1/15)
Length of Visible Light 10h 04m
Length of Day
8h 55m
Waxing Gibbous, 81% of the Moon is Illuminated
Jan 15
Waxing Gibbous
Jan 19
Full
Jan 26
Last Quarter
Feb 2
New
Feb 10
First Quarter

Hourly Weather History & Observations

Time (PST) Temp. Dew Point Humidity Pressure Visibility Wind Dir Wind Speed Gust Speed Precip Events Conditions
12:01 AM 50.0 °F 48.2 °F 94% 30.35 in 10.0 mi West 8.1 mph - N/A   Mostly Cloudy
12:07 AM 50.0 °F 48.2 °F 94% 30.34 in 10.0 mi West 9.2 mph - N/A   Overcast
12:17 AM 50.0 °F 48.2 °F 94% 30.32 in 10.0 mi SSW 5.8 mph - N/A   Overcast
12:21 AM 50.0 °F 48.2 °F 94% 30.31 in 10.0 mi South 3.5 mph - N/A   Overcast
12:49 AM 48.2 °F 46.4 °F 93% 30.33 in 10.0 mi West 6.9 mph - N/A   Mostly Cloudy
12:55 AM 49.5 °F 47.7 °F 94% 30.33 in 10.0 mi WNW 5.8 mph - N/A   Mostly Cloudy
1:16 AM 50.0 °F 48.2 °F 94% 30.35 in 10.0 mi West 4.6 mph - N/A   Overcast
1:18 AM 50.0 °F 48.2 °F 94% 30.35 in 10.0 mi West 5.8 mph - N/A   Overcast
1:33 AM 50.0 °F 48.2 °F 94% 30.36 in 10.0 mi WSW 5.8 mph - N/A   Overcast
1:38 AM 50.0 °F 48.2 °F 94% 30.36 in 10.0 mi SW 5.8 mph - N/A   Overcast
1:41 AM 50.0 °F 48.2 °F 94% 30.35 in 10.0 mi SW 6.9 mph - N/A   Overcast
1:50 AM 50.0 °F 48.2 °F 94% 30.35 in 10.0 mi SSW 8.1 mph - N/A   Mostly Cloudy
1:55 AM 49.6 °F 47.7 °F 93% 30.34 in 10.0 mi South 8.1 mph - N/A   Mostly Cloudy
2:55 AM 49.5 °F 48.4 °F 96% 30.33 in 10.0 mi Calm Calm - N/A   Overcast
3:14 AM 50.0 °F 48.2 °F 94% 30.32 in 10.0 mi ESE 8.1 mph - N/A   Overcast
3:16 AM 50.0 °F 48.2 °F 94% 30.32 in 10.0 mi ESE 6.9 mph - N/A   Overcast
3:23 AM 50.0 °F 48.2 °F 94% 30.32 in 10.0 mi ESE 6.9 mph - N/A   Overcast
3:43 AM 50.0 °F 48.2 °F 94% 30.30 in 10.0 mi SSE 3.5 mph - N/A   Overcast
3:55 AM 50.0 °F 48.4 °F 94% 30.30 in 10.0 mi SW 4.6 mph - N/A   Overcast
3:57 AM 50.0 °F 48.2 °F 94% 30.30 in 10.0 mi WSW 4.6 mph - N/A   Overcast
4:11 AM 50.0 °F 48.2 °F 94% 30.29 in 10.0 mi Calm Calm - N/A   Overcast
4:12 AM 50.0 °F 48.2 °F 94% 30.29 in 10.0 mi Calm Calm - N/A   Overcast
4:18 AM 50.0 °F 48.2 °F 94% 30.29 in 10.0 mi SW 3.5 mph - N/A   Overcast
4:55 AM 48.7 °F 47.5 °F 95% 30.29 in 10.0 mi Calm Calm - N/A   Overcast
5:55 AM 47.7 °F 47.1 °F 98% 30.29 in 10.0 mi Calm Calm - N/A   Overcast
6:55 AM 48.9 °F 48.4 °F 98% 30.27 in 10.0 mi WSW 6.9 mph - N/A   Overcast
7:55 AM 48.7 °F 47.7 °F 96% 30.25 in 10.0 mi SSW 9.2 mph - N/A   Overcast
8:55 AM 48.4 °F 47.3 °F 96% 30.25 in 10.0 mi Calm Calm - N/A   Overcast
9:55 AM 48.2 °F 47.7 °F 98% 30.24 in 10.0 mi Calm Calm - N/A   Partly Cloudy
10:55 AM 48.4 °F 48.0 °F 99% 30.22 in 10.0 mi Calm Calm - N/A   Clear
11:55 AM 49.6 °F 48.9 °F 97% 30.17 in 10.0 mi Calm Calm - N/A   Partly Cloudy
12:13 PM 50.0 °F 48.2 °F 94% 30.16 in 10.0 mi Calm Calm - N/A Rain Light Rain
12:55 PM 49.6 °F 49.5 °F 99% 30.12 in 8.0 mi Calm Calm - 0.02 in Rain Light Rain
1:55 PM 49.5 °F 48.9 °F 98% 30.07 in 9.0 mi NE 3.5 mph - 0.05 in Rain Light Rain
2:55 PM 49.5 °F 49.3 °F 99% 30.03 in 5.0 mi ENE 4.6 mph - 0.05 in Rain Light Rain
3:55 PM 48.6 °F 48.0 °F 98% 29.97 in 5.0 mi ENE 5.8 mph - 0.13 in Rain Light Rain
4:04 PM 48.2 °F 48.2 °F 100% 29.96 in 5.0 mi East 5.8 mph - N/A Rain Light Rain
4:55 PM 48.0 °F 47.5 °F 98% 29.92 in 7.0 mi Calm Calm - 0.09 in Rain Light Rain
5:42 PM 48.2 °F 46.4 °F 93% 29.89 in 7.0 mi Calm Calm - N/A Rain Light Rain
5:55 PM 47.5 °F 47.3 °F 99% 29.87 in 7.0 mi Calm Calm - 0.04 in Rain Light Rain
6:14 PM 48.2 °F 48.2 °F 100% 29.86 in 10.0 mi South 5.8 mph - N/A Rain Light Rain
6:55 PM 48.7 °F 48.6 °F 99% 29.87 in 8.0 mi SW 4.6 mph - 0.02 in Rain Light Rain
7:43 PM 51.8 °F 51.8 °F 100% 29.86 in 10.0 mi SSW 10.4 mph - N/A   Overcast
7:55 PM 52.9 °F 51.8 °F 96% 29.85 in 10.0 mi SSW 13.8 mph - 0.02 in   Overcast
8:43 PM 53.6 °F 51.8 °F 94% 29.84 in 10.0 mi SSW 10.4 mph - N/A Rain Light Rain
8:55 PM 53.6 °F 52.2 °F 95% 29.85 in 10.0 mi SSW 10.4 mph - 0.00 in Rain Light Rain
9:42 PM 53.6 °F 51.8 °F 94% 29.85 in 5.0 mi South 13.8 mph 21.9 mph N/A Rain Light Rain
9:53 PM 53.6 °F 51.8 °F 94% 29.85 in 10.0 mi SSW 13.8 mph - N/A Rain Light Rain
9:55 PM 53.4 °F 52.3 °F 96% 29.85 in 10.0 mi SSW 13.8 mph - 0.05 in Rain Light Rain
10:30 PM 53.6 °F 51.8 °F 94% 29.86 in 6.0 mi SSW 13.8 mph - N/A Rain Rain
10:43 PM 53.6 °F 51.8 °F 94% 29.86 in 7.0 mi SSW 15.0 mph 23.0 mph N/A Rain Rain
10:50 PM 53.6 °F 51.8 °F 94% 29.85 in 9.0 mi South 17.3 mph 23.0 mph N/A Rain Light Rain
10:55 PM 53.4 °F 52.3 °F 96% 29.85 in 10.0 mi SSW 12.7 mph - 0.11 in Rain Light Rain
10:56 PM 53.6 °F 51.8 °F 94% 29.85 in 10.0 mi SSW 12.7 mph - N/A Rain Light Rain
11:09 PM 53.6 °F 51.8 °F 94% 29.84 in 10.0 mi South 12.7 mph - N/A Rain Light Rain
11:55 PM 53.2 °F 52.0 °F 95% 29.82 in 9.0 mi South 12.7 mph - 0.03 in Rain Light Rain